Time,TemperatureF,DewpointF,PressureIn,WindDirection,WindDirectionDegrees,WindSpeedMPH,WindSpeedGustMPH,Humidity,HourlyPrecipIn,Conditions,Clouds,dailyrainin,SoftwareType,DateUTC
2013-08-03 00:12:00,58.0,52.0,-100.00,North,-999,-999.0,-999.0,76,0.00,,,0.00,,2013-08-03 05:12:00,
2013-08-03 00:22:00,59.0,52.0,-100.00,North,-999,-999.0,-999.0,76,0.00,,,0.00,,2013-08-03 05:22:00,
2013-08-03 00:32:00,58.0,50.0,-100.00,North,-999,-999.0,-999.0,76,0.00,,,0.00,,2013-08-03 05:32:00,
2013-08-03 01:02:00,57.0,50.0,-100.00,North,-999,-999.0,-999.0,77,0.00,,,0.00,,2013-08-03 06:02:00,
2013-08-03 01:12:00,57.0,50.0,-100.00,North,-999,-999.0,-999.0,77,0.00,,,0.00,,2013-08-03 06:12:00,
2013-08-03 01:22:00,57.0,50.0,-100.00,North,-999,-999.0,-999.0,78,0.00,,,0.00,,2013-08-03 06:22:00,
2013-08-03 01:52:00,56.0,50.0,-100.00,North,-999,-999.0,-999.0,79,0.00,,,0.00,,2013-08-03 06:52:00,
2013-08-03 02:43:00,55.0,50.0,-100.00,North,-999,-999.0,-999.0,80,0.00,,,0.00,,2013-08-03 07:43:00,
2013-08-03 02:52:00,55.0,50.0,-100.00,North,-999,-999.0,-999.0,81,0.00,,,0.00,,2013-08-03 07:52:00,
2013-08-03 03:32:00,54.0,50.0,-100.00,North,-999,-999.0,-999.0,83,0.00,,,0.00,,2013-08-03 08:32:00,
2013-08-03 03:52:00,53.0,48.0,-100.00,North,-999,-999.0,-999.0,85,0.00,,,0.00,,2013-08-03 08:52:00,
2013-08-03 04:12:00,53.0,48.0,-100.00,North,-999,-999.0,-999.0,85,0.00,,,0.00,,2013-08-03 09:12:00,
2013-08-03 04:22:00,53.0,48.0,-100.00,North,-999,-999.0,-999.0,85,0.00,,,0.00,,2013-08-03 09:22:00,
2013-08-03 04:32:00,53.0,48.0,-100.00,North,-999,-999.0,-999.0,85,0.00,,,0.00,,2013-08-03 09:32:00,
2013-08-03 04:43:00,53.0,48.0,-100.00,North,-999,-999.0,-999.0,85,0.00,,,0.00,,2013-08-03 09:43:00,
2013-08-03 08:52:00,64.0,50.0,-100.00,North,-999,-999.0,-999.0,60,0.00,,,0.00,,2013-08-03 13:52:00,
2013-08-03 09:42:00,66.0,48.0,-100.00,North,-999,-999.0,-999.0,53,0.00,,,0.00,,2013-08-03 14:42:00,
2013-08-03 10:02:00,67.0,48.0,-100.00,North,-999,-999.0,-999.0,51,0.00,,,0.00,,2013-08-03 15:02:00,
2013-08-03 10:12:00,70.0,48.0,-100.00,North,-999,-999.0,-999.0,45,0.00,,,0.00,,2013-08-03 15:12:00,
2013-08-03 10:23:00,72.0,48.0,-100.00,North,-999,-999.0,-999.0,43,0.00,,,0.00,,2013-08-03 15:23:00,
2013-08-03 12:03:00,75.0,45.0,-100.00,North,-999,-999.0,-999.0,32,0.00,,,0.00,,2013-08-03 17:03:00,
2013-08-03 12:12:00,76.0,45.0,-100.00,North,-999,-999.0,-999.0,32,0.00,,,0.00,,2013-08-03 17:12:00,
2013-08-03 12:22:00,75.0,45.0,-100.00,North,-999,-999.0,-999.0,34,0.00,,,0.00,,2013-08-03 17:22:00,
2013-08-03 13:02:00,76.0,45.0,-100.00,North,-999,-999.0,-999.0,32,0.00,,,0.00,,2013-08-03 18:02:00,
2013-08-03 13:12:00,75.0,45.0,-100.00,North,-999,-999.0,-999.0,33,0.00,,,0.00,,2013-08-03 18:12:00,
2013-08-03 13:22:00,76.0,45.0,-100.00,North,-999,-999.0,-999.0,33,0.00,,,0.00,,2013-08-03 18:22:00,
2013-08-03 13:43:00,75.0,45.0,-100.00,North,-999,-999.0,-999.0,33,0.00,,,0.00,,2013-08-03 18:43:00,
2013-08-03 14:02:00,71.0,45.0,-100.00,North,-999,-999.0,-999.0,39,0.00,,,0.00,,2013-08-03 19:02:00,
2013-08-03 14:22:00,74.0,46.0,-100.00,North,-999,-999.0,-999.0,36,0.00,,,0.00,,2013-08-03 19:22:00,
2013-08-03 14:32:00,73.0,45.0,-100.00,North,-999,-999.0,-999.0,35,0.00,,,0.00,,2013-08-03 19:32:00,
2013-08-03 14:52:00,76.0,46.0,-100.00,North,-999,-999.0,-999.0,34,0.00,,,0.00,,2013-08-03 19:52:00,
2013-08-03 15:02:00,74.0,45.0,-100.00,North,-999,-999.0,-999.0,34,0.00,,,0.00,,2013-08-03 20:02:00,
2013-08-03 15:12:00,74.0,45.0,-100.00,North,-999,-999.0,-999.0,34,0.00,,,0.00,,2013-08-03 20:12:00,
2013-08-03 15:32:00,76.0,45.0,-100.00,North,-999,-999.0,-999.0,32,0.00,,,0.00,,2013-08-03 20:32:00,
2013-08-03 15:52:00,77.0,43.0,-100.00,North,-999,-999.0,-999.0,30,0.00,,,0.00,,2013-08-03 20:52:00,
2013-08-03 16:02:00,78.0,43.0,-100.00,North,-999,-999.0,-999.0,28,0.00,,,0.00,,2013-08-03 21:02:00,
2013-08-03 16:52:00,76.0,41.0,-100.00,North,-999,-999.0,-999.0,28,0.00,,,0.00,,2013-08-03 21:52:00,
2013-08-03 17:02:00,74.0,41.0,-100.00,North,-999,-999.0,-999.0,29,0.00,,,0.00,,2013-08-03 22:02:00,
2013-08-03 17:22:00,77.0,43.0,-100.00,North,-999,-999.0,-999.0,30,0.00,,,0.00,,2013-08-03 22:22:00,
2013-08-03 17:33:00,78.0,45.0,-100.00,North,-999,-999.0,-999.0,30,0.00,,,0.00,,2013-08-03 22:33:00,
2013-08-03 18:12:00,75.0,43.0,-100.00,North,-999,-999.0,-999.0,31,0.00,,,0.00,,2013-08-03 23:12:00,
2013-08-03 18:32:00,72.0,43.0,-100.00,North,-999,-999.0,-999.0,35,0.00,,,0.00,,2013-08-03 23:32:00,
2013-08-03 19:02:00,75.0,43.0,-100.00,North,-999,-999.0,-999.0,31,0.00,,,0.00,,2013-08-04 00:02:00,
2013-08-03 19:32:00,73.0,45.0,-100.00,North,-999,-999.0,-999.0,34,0.00,,,0.00,,2013-08-04 00:32:00,
2013-08-03 19:42:00,73.0,45.0,-100.00,North,-999,-999.0,-999.0,34,0.00,,,0.00,,2013-08-04 00:42:00,
2013-08-03 20:02:00,72.0,45.0,-100.00,North,-999,-999.0,-999.0,35,0.00,,,0.00,,2013-08-04 01:02:00,
2013-08-03 20:12:00,71.0,45.0,-100.00,North,-999,-999.0,-999.0,37,0.00,,,0.00,,2013-08-04 01:12:00,
2013-08-03 20:22:00,71.0,45.0,-100.00,North,-999,-999.0,-999.0,37,0.00,,,0.00,,2013-08-04 01:22:00,
2013-08-03 20:32:00,68.0,45.0,-100.00,North,-999,-999.0,-999.0,40,0.00,,,0.00,,2013-08-04 01:32:00,
2013-08-03 21:02:00,65.0,45.0,-100.00,North,-999,-999.0,-999.0,47,0.00,,,0.00,,2013-08-04 02:02:00,
2013-08-03 21:12:00,63.0,45.0,-100.00,North,-999,-999.0,-999.0,49,0.00,,,0.00,,2013-08-04 02:12:00,
2013-08-03 21:22:00,63.0,45.0,-100.00,North,-999,-999.0,-999.0,50,0.00,,,0.00,,2013-08-04 02:22:00,
2013-08-03 21:32:00,63.0,45.0,-100.00,North,-999,-999.0,-999.0,52,0.00,,,0.00,,2013-08-04 02:32:00,
2013-08-03 21:52:00,62.0,46.0,-100.00,North,-999,-999.0,-999.0,54,0.00,,,0.00,,2013-08-04 02:52:00,
2013-08-03 22:22:00,61.0,46.0,-100.00,North,-999,-999.0,-999.0,58,0.00,,,0.00,,2013-08-04 03:22:00,
2013-08-03 22:42:00,61.0,46.0,-100.00,North,-999,-999.0,-999.0,60,0.00,,,0.00,,2013-08-04 03:42:00,
2013-08-03 23:22:00,59.0,48.0,-100.00,North,-999,-999.0,-999.0,65,0.00,,,0.00,,2013-08-04 04:22:00,
2013-08-03 23:32:00,59.0,48.0,-100.00,North,-999,-999.0,-999.0,66,0.00,,,0.00,,2013-08-04 04:32:00,
2013-08-03 23:52:00,58.0,48.0,-100.00,North,-999,-999.0,-999.0,68,0.00,,,0.00,,2013-08-04 04:52:00,